Total_Precipitation_Accumulation
0.88 0.36 0.15 0.16 0.17 0.06 0.01 0.01 0.00 0.00 0.00 0.00 0.00 0.00 0.00 0.00 0.00 0.00 0.00 0.00 0.01 0.03 0.02 0.02 0.02 0.03 0.04 0.03 0.03 0.05 0.03 0.02 0.03 0.10 0.14 0.19 0.18 0.10 0.07 0.05 0.07 0.07 0.18
1.66 1.34 0.76 0.27 0.23 0.04 0.02 0.00 0.00 0.00 0.00 0.00 0.00 0.00 0.00 0.00 0.00 0.00 0.00 0.00 0.01 0.02 0.02 0.01 0.02 0.03 0.04 0.02 0.02 0.00 0.00 0.00 0.01 0.04 0.14 0.16 0.19 0.10 0.10 0.04 0.06 0.07 0.11
1.24 2.36 1.78 0.99 0.50 0.18 0.07 0.03 0.04 0.02 0.00 0.00 0.00 0.01 0.01 0.01 0.01 0.00 0.00 0.01 0.00 0.02 0.02 0.01 0.03 0.05 0.05 0.02 0.00 0.00 0.00 0.00 0.01 0.02 0.04 0.08 0.07 0.07 0.09 0.09 0.07 0.05 0.06
0.39 0.79 1.84 1.47 0.91 0.56 0.23 0.17 0.16 0.20 0.07 0.01 0.02 0.00 0.01 0.04 0.04 0.02 0.01 0.00 0.01 0.02 0.04 0.04 0.06 0.06 0.05 0.01 0.00 0.00 0.00 0.00 0.00 0.00 0.00 0.03 0.06 0.11 0.13 0.14 0.10 0.05 0.04
0.96 0.81 0.69 0.84 1.04 1.06 0.53 0.35 0.30 0.22 0.12 0.05 0.06 0.01 0.00 0.03 0.02 0.04 0.02 0.01 0.01 0.03 0.07 0.09 0.07 0.06 0.03 0.00 0.00 0.00 0.00 0.00 0.00 0.00 0.00 0.01 0.02 0.07 0.14 0.12 0.04 0.04 0.04
2.24 1.89 1.46 1.03 1.05 1.52 1.41 0.76 0.38 0.19 0.20 0.15 0.11 0.04 0.02 0.03 0.02 0.03 0.02 0.01 0.05 0.06 0.10 0.10 0.07 0.05 0.02 0.01 0.00 0.00 0.00 0.00 0.00 0.00 0.00 0.00 0.00 0.03 0.07 0.07 0.07 0.04 0.03
3.77 3.05 2.81 3.34 2.80 2.07 2.58 1.72 0.99 0.73 0.55 0.40 0.11 0.02 0.02 0.03 0.03 0.08 0.04 0.05 0.08 0.06 0.06 0.05 0.03 0.03 0.01 0.00 0.00 0.00 0.00 0.00 0.00 0.00 0.00 0.00 0.00 0.02 0.03 0.03 0.03 0.02 0.02
5.54 4.48 4.79 4.60 4.25 4.62 2.69 3.28 3.28 2.76 1.91 0.91 0.50 0.27 0.33 0.51 0.29 0.27 0.18 0.15 0.12 0.06 0.03 0.02 0.01 0.00 0.00 0.00 0.00 0.00 0.00 0.00 0.00 0.00 0.00 0.00 0.02 0.02 0.02 0.02 0.01 0.01 0.01
6.57 8.14 8.36 7.58 5.71 5.01 3.66 2.81 3.95 5.37 5.95 5.38 3.33 2.72 1.93 1.22 0.73 0.37 0.25 0.16 0.12 0.06 0.01 0.01 0.00 0.00 0.00 0.00 0.00 0.00 0.00 0.00 0.00 0.00 0.00 0.00 0.01 0.02 0.02 0.01 0.03 0.03 0.02
4.79 6.70 7.63 8.94 8.46 3.91 2.82 2.27 2.97 4.38 5.93 6.76 5.83 4.67 3.04 1.94 1.38 0.70 0.53 0.34 0.13 0.08 0.03 0.01 0.00 0.00 0.00 0.00 0.00 0.00 0.00 0.00 0.00 0.00 0.00 0.00 0.02 0.02 0.01 0.01 0.01 0.01 0.02
2.64 3.34 4.89 7.54 6.16 3.45 1.93 1.50 1.82 3.56 3.54 3.12 3.16 4.03 3.01 2.15 1.63 0.99 0.75 0.61 0.34 0.16 0.05 0.00 0.00 0.00 0.00 0.00 0.00 0.00 0.00 0.00 0.00 0.00 0.00 0.01 0.02 0.01 0.02 0.01 0.01 0.01 0.01
1.41 1.71 1.91 3.61 4.18 2.92 1.74 1.41 1.11 1.76 2.67 3.09 1.78 1.91 1.84 1.83 1.59 0.84 0.78 0.83 0.63 0.31 0.07 0.01 0.00 0.00 0.00 0.00 0.00 0.00 0.00 0.00 0.00 0.00 0.00 0.02 0.01 0.02 0.02 0.01 0.01 0.01 0.01
0.94 0.83 0.97 1.49 1.80 2.25 1.81 1.47 1.35 1.25 1.29 2.87 1.89 0.91 0.96 1.13 1.04 0.78 0.46 0.58 0.56 0.39 0.04 0.01 0.00 0.00 0.00 0.00 0.00 0.00 0.00 0.00 0.00 0.00 0.00 0.02 0.02 0.02 0.03 0.02 0.01 0.01 0.01
0.39 0.37 0.58 0.60 0.67 0.95 1.28 1.25 0.93 1.03 1.10 1.36 1.72 0.77 0.56 0.80 0.45 0.46 0.24 0.24 0.22 0.17 0.02 0.00 0.00 0.00 0.00 0.00 0.00 0.00 0.00 0.00 0.00 0.00 0.00 0.01 0.02 0.02 0.04 0.04 0.02 0.01 0.01
0.21 0.33 0.32 0.36 0.30 0.47 0.67 0.93 0.91 0.64 0.75 0.82 1.13 0.83 0.40 0.38 0.27 0.29 0.14 0.11 0.09 0.07 0.01 0.00 0.00 0.00 0.00 0.00 0.00 0.00 0.00 0.00 0.00 0.00 0.00 0.00 0.01 0.02 0.05 0.06 0.02 0.01 0.00
0.30 0.32 0.28 0.34 0.29 0.39 0.69 0.79 0.94 0.85 0.66 0.75 0.70 0.63 0.39 0.31 0.23 0.19 0.09 0.10 0.05 0.04 0.01 0.00 0.00 0.00 0.00 0.00 0.00 0.00 0.00 0.00 0.00 0.00 0.00 0.00 0.00 0.02 0.03 0.03 0.01 0.01 0.00
0.41 0.24 0.28 0.33 0.44 0.43 0.46 0.53 0.82 0.90 0.73 0.62 0.49 0.47 0.39 0.30 0.19 0.12 0.06 0.07 0.07 0.02 0.00 0.00 0.00 0.00 0.00 0.00 0.00 0.00 0.00 0.00 0.00 0.00 0.00 0.00 0.00 0.00 0.01 0.01 0.00 0.00 0.00
0.30 0.52 0.20 0.23 0.65 0.53 0.46 0.42 0.57 0.83 0.84 0.63 0.50 0.47 0.34 0.17 0.10 0.09 0.06 0.07 0.07 0.02 0.00 0.00 0.00 0.00 0.00 0.00 0.00 0.00 0.00 0.00 0.00 0.00 0.00 0.00 0.00 0.00 0.00 0.01 0.01 0.00 0.00
0.05 0.48 0.53 0.34 0.43 0.61 0.63 0.49 0.46 0.61 0.73 0.61 0.44 0.65 0.62 0.43 0.12 0.12 0.16 0.14 0.10 0.04 0.00 0.00 0.00 0.00 0.00 0.00 0.00 0.00 0.00 0.00 0.00 0.00 0.00 0.00 0.00 0.00 0.00 0.00 0.00 0.00 0.00
0.03 0.05 0.35 0.47 0.41 0.42 0.44 0.33 0.41 0.52 0.70 0.50 0.37 0.73 0.66 0.67 0.35 0.16 0.08 0.08 0.10 0.05 0.00 0.00 0.00 0.00 0.00 0.00 0.00 0.00 0.00 0.00 0.00 0.00 0.00 0.00 0.00 0.00 0.00 0.00 0.00 0.00 0.00
0.06 0.04 0.10 0.25 0.23 0.36 0.33 0.21 0.27 0.33 0.53 0.36 0.40 0.43 0.88 0.80 0.69 0.23 0.14 0.06 0.04 0.05 0.01 0.01 0.00 0.00 0.00 0.00 0.00 0.00 0.00 0.00 0.00 0.00 0.00 0.00 0.00 0.00 0.00 0.00 0.01 0.00 0.00
0.05 0.04 0.02 0.04 0.10 0.19 0.24 0.24 0.12 0.12 0.20 0.27 0.33 0.42 0.54 0.70 0.69 0.34 0.22 0.10 0.05 0.05 0.02 0.01 0.00 0.00 0.00 0.00 0.00 0.00 0.00 0.00 0.00 0.00 0.00 0.00 0.00 0.00 0.00 0.00 0.00 0.00 0.00
0.01 0.01 0.02 0.02 0.04 0.06 0.14 0.25 0.17 0.20 0.17 0.22 0.38 0.59 0.42 0.37 0.53 0.43 0.23 0.11 0.05 0.04 0.02 0.01 0.00 0.00 0.00 0.00 0.00 0.00 0.00 0.01 0.00 0.00 0.00 0.00 0.00 0.00 0.00 0.00 0.00 0.00 0.00
0.03 0.03 0.06 0.04 0.03 0.03 0.04 0.07 0.07 0.13 0.12 0.13 0.13 0.27 0.46 0.22 0.26 0.46 0.28 0.12 0.02 0.02 0.04 0.05 0.02 0.02 0.02 0.01 0.01 0.01 0.00 0.03 0.10 0.10 0.02 0.00 0.00 0.00 0.00 0.00 0.00 0.00 0.00
0.04 0.04 0.03 0.04 0.05 0.03 0.04 0.03 0.04 0.07 0.09 0.06 0.04 0.06 0.28 0.44 0.26 0.23 0.30 0.21 0.09 0.07 0.11 0.18 0.13 0.13 0.14 0.21 0.14 0.04 0.02 0.01 0.02 0.13 0.11 0.05 0.01 0.00 0.00 0.00 0.00 0.00 0.00
0.05 0.05 0.06 0.05 0.05 0.09 0.09 0.09 0.05 0.09 0.07 0.04 0.05 0.06 0.10 0.28 0.59 0.47 0.38 0.38 0.28 0.24 0.31 0.42 0.46 0.28 0.19 0.19 0.29 0.16 0.17 0.14 0.08 0.06 0.05 0.06 0.10 0.05 0.02 0.03 0.04 0.03 0.02